This is the latest recevied weather packets stored in our database for station/object AD0YN. If no packets are shown the sender has not sent any weather packets the latest 10 day(s).
| Time | Temp. | Humidity | Pressure | Rain* | Wind** | Luminosity | Snow |
|---|---|---|---|---|---|---|---|
| 1778108354 | 15.56° C | 30% | 1016.5 hPa | 0 mm | - | 293 W/m² | - |
| 1778108051 | 15.56° C | 30% | 1016.3 hPa | 0 mm | - | 312 W/m² | - |
| 1778107748 | 15.56° C | 29% | 1016.5 hPa | 0 mm | - | 332 W/m² | - |
| 1778107445 | 16.11° C | 30% | 1016.6 hPa | 0 mm | - | 351 W/m² | - |
| 1778107141 | 16.11° C | 33% | 1016.7 hPa | 0 mm | - | 358 W/m² | - |
| 1778106836 | 16.11° C | 30% | 1016.5 hPa | 0 mm | - | 396 W/m² | - |
| 1778106534 | 16.67° C | 29% | 1016.5 hPa | 0 mm | - | 417 W/m² | - |
| 1778106230 | 16.11° C | 29% | 1016.4 hPa | 0 mm | - | 439 W/m² | - |
| 1778105928 | 16.67° C | 30% | 1016.5 hPa | 0 mm | - | 465 W/m² | - |
| 1778105625 | 16.67° C | 31% | 1016.5 hPa | 0 mm | - | 351 W/m² | - |
| 1778105322 | 16.11° C | 29% | 1016.4 hPa | 0 mm | - | 516 W/m² | - |
| 1778105018 | 16.11° C | 29% | 1016.4 hPa | 0 mm | - | 482 W/m² | - |
| 1778104715 | 16.11° C | 29% | 1016.5 hPa | 0 mm | - | 530 W/m² | - |
| 1778104410 | 16.11° C | 29% | 1016.7 hPa | 0 mm | - | 545 W/m² | - |
| 1778104107 | 16.11° C | 27% | 1016.7 hPa | 0 mm | - | 568 W/m² | - |
| 1778103803 | 16.11° C | 27% | 1016.8 hPa | 0 mm | - | 583 W/m² | - |
| 1778103502 | 16.11° C | 28% | 1016.6 hPa | 0 mm | - | 609 W/m² | - |
| 1778103199 | 16.11° C | 29% | 1016.8 hPa | 0 mm | - | 635 W/m² | - |
| 1778102896 | 15.56° C | 30% | 1016.8 hPa | 0 mm | - | 577 W/m² | - |
| 1778102592 | 15.56° C | 32% | 1016.8 hPa | 0 mm | - | 666 W/m² | - |
| 1778102287 | 15° C | 29% | 1017 hPa | 0 mm | - | 701 W/m² | - |
| 1778101983 | 15.56° C | 29% | 1016.9 hPa | 0 mm | - | 574 W/m² | - |
| 1778101681 | 16.11° C | 28% | 1017.2 hPa | 0 mm | - | 635 W/m² | - |
| 1778101377 | 15.56° C | 34% | 1017.1 hPa | 0 mm | - | 683 W/m² | - |
| 1778101074 | 15.56° C | 30% | 1017.2 hPa | 0 mm | - | 691 W/m² | - |
* Rain latest hour (hover to see other rain measurements)
** Current wind speed in m/s (hover to see current wind gust speed)